When you browse on this site, cookies collect data to enhance your experience and personalize the content and advertising you see.
Visit our Privacy Policy to learn more. By continuing to use the site, you agree to this use of cookies and data.
  • în România
  • Lista ţărilor
  • Pe 7 zile
  • Temperatura apei
  • Hartă satelitară
  • Meteo pe hartă
  • Widget-uri
  • user-avatar
    Intrare

    Meteo pe oră la Mingora

    Astăzi, 16 Iulie, Marţi

    Timp Temperatura Precipitaţii Vânt Presiune Umiditate
    00:00 +24°C° 0.6 mm 0 m/s 667 mmHg 84%
    01:00 +24°C° 0.6 mm 0 m/s 667 mmHg 83%
    02:00 +24°C° 0.6 mm 0 m/s 667 mmHg 82%
    03:00 +24°C° 0.1 mm 0 m/s 667 mmHg 83%
    04:00 +23°C° 0.1 mm 0 m/s 667 mmHg 84%
    05:00 +23°C° 0 mm 0 m/s 667 mmHg 85%
    06:00 +24°C° 0.4 mm 0 m/s 667 mmHg 82%
    07:00 +25°C° 0.4 mm 0 m/s 667 mmHg 78%
    08:00 +26°C° 0.4 mm 0 m/s 668 mmHg 74%
    09:00 +29°C° 0.2 mm 1 m/s 668 mmHg 71%
    10:00 +30°C° 0.2 mm 2 m/s 668 mmHg 68%
    11:00 +31°C° 0 mm 3 m/s 668 mmHg 65%
    12:00 +31°C° 1.1 mm 3 m/s 668 mmHg 66%
    13:00 +30°C° 1.1 mm 3 m/s 668 mmHg 68%
    14:00 +30°C° 1.1 mm 3 m/s 668 mmHg 69%
    15:00 +30°C° 1 mm 2 m/s 668 mmHg 70%
    16:00 +30°C° 1 mm 2 m/s 668 mmHg 70%
    17:00 +30°C° 0 mm 2 m/s 668 mmHg 71%
    18:00 +29°C° 0.1 mm 2 m/s 668 mmHg 75%
    19:00 +28°C° 0.1 mm 1 m/s 668 mmHg 79%
    20:00 +27°C° 0.1 mm 1 m/s 668 mmHg 82%
    21:00 +27°C° 0.1 mm 1 m/s 669 mmHg 84%
    22:00 +27°C° 0.1 mm 1 m/s 669 mmHg 85%
    23:00 +24°C° 0.1 mm 0 m/s 670 mmHg 86%

    Mâine, 17 Iulie, Miercuri

    Timp Temperatura Precipitaţii Vânt Presiune Umiditate
    00:00 +26°C° 0.3 mm 1 m/s 669 mmHg 86%
    01:00 +26°C° 0.3 mm 1 m/s 669 mmHg 87%
    02:00 +26°C° 0.3 mm 1 m/s 669 mmHg 87%
    03:00 +25°C° 0.1 mm 1 m/s 669 mmHg 88%
    04:00 +25°C° 0.1 mm 1 m/s 669 mmHg 90%
    05:00 +24°C° 0.1 mm 1 m/s 669 mmHg 91%
    06:00 +25°C° 0.1 mm 1 m/s 669 mmHg 88%
    07:00 +26°C° 0.1 mm 1 m/s 669 mmHg 84%
    08:00 +27°C° 0.1 mm 2 m/s 670 mmHg 80%
    09:00 +28°C° 0.2 mm 2 m/s 670 mmHg 77%
    10:00 +29°C° 0.2 mm 2 m/s 670 mmHg 73%
    11:00 +29°C° 0.2 mm 2 m/s 670 mmHg 70%
    12:00 +30°C° 0.1 mm 2 m/s 670 mmHg 68%
    13:00 +30°C° 0.1 mm 2 m/s 669 mmHg 67%
    14:00 +31°C° 0.1 mm 2 m/s 669 mmHg 65%
    15:00 +31°C° 0.2 mm 2 m/s 669 mmHg 65%
    16:00 +31°C° 0.2 mm 2 m/s 669 mmHg 65%
    17:00 +31°C° 0.2 mm 2 m/s 668 mmHg 65%
    18:00 +30°C° 0 mm 1 m/s 668 mmHg 69%
    19:00 +29°C° 0 mm 1 m/s 668 mmHg 72%
    20:00 +26°C° 0 mm 0 m/s 668 mmHg 76%
    21:00 +26°C° 0 mm 0 m/s 669 mmHg 77%
    22:00 +25°C° 0 mm 0 m/s 669 mmHg 78%
    23:00 +25°C° 0 mm 0 m/s 669 mmHg 79%

    Poimâine, 18 Iulie, Joi

    Timp Temperatura Precipitaţii Vânt Presiune Umiditate
    00:00 +25°C° 0 mm 0 m/s 669 mmHg 79%
    01:00 +25°C° 0 mm 0 m/s 669 mmHg 79%
    02:00 +25°C° 0 mm 0 m/s 668 mmHg 79%
    03:00 +25°C° 0.1 mm 0 m/s 668 mmHg 80%
    04:00 +24°C° 0.1 mm 0 m/s 669 mmHg 80%
    05:00 +24°C° 0.1 mm 0 m/s 669 mmHg 80%
    06:00 +27°C° 0.1 mm 1 m/s 669 mmHg 76%
    07:00 +28°C° 0.1 mm 1 m/s 669 mmHg 72%
    08:00 +29°C° 0.1 mm 1 m/s 670 mmHg 67%
    09:00 +30°C° 0.7 mm 2 m/s 670 mmHg 65%
    10:00 +31°C° 0.7 mm 2 m/s 670 mmHg 63%
    11:00 +31°C° 0.7 mm 2 m/s 670 mmHg 62%
    12:00 +32°C° 0.7 mm 2 m/s 670 mmHg 60%
    13:00 +32°C° 0.7 mm 2 m/s 669 mmHg 59%
    14:00 +32°C° 0.7 mm 2 m/s 669 mmHg 58%
    15:00 +32°C° 0.6 mm 2 m/s 669 mmHg 59%
    16:00 +32°C° 0.6 mm 2 m/s 669 mmHg 60%
    17:00 +32°C° 0.6 mm 2 m/s 668 mmHg 61%
    18:00 +31°C° 0.5 mm 1 m/s 668 mmHg 66%
    19:00 +30°C° 0.5 mm 1 m/s 668 mmHg 71%
    20:00 +27°C° 0.5 mm 0 m/s 668 mmHg 76%
    21:00 +28°C° 0.1 mm 1 m/s 669 mmHg 76%
    22:00 +28°C° 0.1 mm 1 m/s 669 mmHg 77%
    23:00 +27°C° 0.1 mm 1 m/s 669 mmHg 78%

    19 Iulie, Vineri

    Timp Temperatura Precipitaţii Vânt Presiune Umiditate
    00:00 +27°C° 0.2 mm 1 m/s 669 mmHg 78%
    01:00 +27°C° 0.2 mm 1 m/s 669 mmHg 78%
    02:00 +27°C° 0.2 mm 1 m/s 669 mmHg 78%
    03:00 +27°C° 0.2 mm 1 m/s 669 mmHg 78%
    04:00 +26°C° 0.2 mm 1 m/s 669 mmHg 78%
    05:00 +26°C° 0.2 mm 1 m/s 669 mmHg 78%
    06:00 +27°C° 0.1 mm 1 m/s 669 mmHg 75%
    07:00 +28°C° 0.1 mm 1 m/s 670 mmHg 71%
    08:00 +30°C° 0.1 mm 1 m/s 670 mmHg 68%
    09:00 +30°C° 1.2 mm 1 m/s 670 mmHg 66%
    10:00 +31°C° 1.2 mm 2 m/s 670 mmHg 64%
    11:00 +32°C° 1.2 mm 2 m/s 670 mmHg 62%
    12:00 +32°C° 0.9 mm 2 m/s 670 mmHg 61%
    13:00 +32°C° 0.9 mm 2 m/s 670 mmHg 60%
    14:00 +34°C° 0.9 mm 2 m/s 669 mmHg 59%
    15:00 +32°C° 0.8 mm 2 m/s 669 mmHg 61%
    16:00 +32°C° 0.8 mm 2 m/s 669 mmHg 62%
    17:00 +32°C° 0.8 mm 2 m/s 669 mmHg 63%
    18:00 +31°C° 0.2 mm 1 m/s 669 mmHg 68%
    19:00 +30°C° 0.2 mm 1 m/s 669 mmHg 72%
    20:00 +27°C° 0.2 mm 0 m/s 669 mmHg 77%
    21:00 +29°C° 0.3 mm 1 m/s 669 mmHg 77%
    22:00 +28°C° 0.3 mm 1 m/s 670 mmHg 78%
    23:00 +28°C° 0.3 mm 1 m/s 670 mmHg 78%

    20 Iulie, Sâmbătă

    Timp Temperatura Precipitaţii Vânt Presiune Umiditate
    00:00 +28°C° 1.1 mm 1 m/s 670 mmHg 79%
    01:00 +27°C° 1.1 mm 1 m/s 670 mmHg 80%
    02:00 +27°C° 1.1 mm 1 m/s 670 mmHg 81%
    03:00 +27°C° 1.1 mm 1 m/s 669 mmHg 82%
    04:00 +27°C° 1.1 mm 1 m/s 669 mmHg 82%
    05:00 +24°C° 1.1 mm 0 m/s 669 mmHg 83%
    06:00 +27°C° 0.1 mm 1 m/s 670 mmHg 79%
    07:00 +28°C° 0.1 mm 1 m/s 670 mmHg 75%
    08:00 +30°C° 0.1 mm 1 m/s 671 mmHg 71%
    09:00 +30°C° 0.5 mm 1 m/s 671 mmHg 68%
    10:00 +31°C° 0.5 mm 2 m/s 671 mmHg 65%
    11:00 +32°C° 0.5 mm 2 m/s 671 mmHg 62%
    12:00 +34°C° 0.4 mm 2 m/s 671 mmHg 62%
    13:00 +34°C° 0.4 mm 3 m/s 670 mmHg 62%
    14:00 +34°C° 0.4 mm 3 m/s 670 mmHg 63%
    15:00 +34°C° 0.5 mm 2 m/s 670 mmHg 64%
    16:00 +32°C° 0.5 mm 2 m/s 669 mmHg 65%
    17:00 +32°C° 0.5 mm 2 m/s 669 mmHg 66%
    18:00 +31°C° 0 mm 1 m/s 669 mmHg 70%
    19:00 +30°C° 0 mm 1 m/s 669 mmHg 75%
    20:00 +27°C° 0 mm 0 m/s 669 mmHg 80%
    21:00 +29°C° 0 mm 1 m/s 669 mmHg 81%
    22:00 +28°C° 0 mm 1 m/s 669 mmHg 81%
    23:00 +28°C° 0 mm 1 m/s 669 mmHg 82%

    21 Iulie, Duminică

    Timp Temperatura Precipitaţii Vânt Presiune Umiditate
    00:00 +28°C° 0.1 mm 1 m/s 669 mmHg 82%
    01:00 +26°C° 0.1 mm 0 m/s 668 mmHg 82%
    02:00 +26°C° 0.1 mm 0 m/s 668 mmHg 82%
    03:00 +27°C° 0.1 mm 1 m/s 668 mmHg 82%
    04:00 +27°C° 0.1 mm 1 m/s 668 mmHg 82%
    05:00 +27°C° 0.1 mm 1 m/s 668 mmHg 82%
    06:00 +28°C° 0.1 mm 1 m/s 668 mmHg 78%
    07:00 +27°C° 0.1 mm 0 m/s 669 mmHg 74%
    08:00 +29°C° 0.1 mm 0 m/s 669 mmHg 70%
    09:00 +32°C° 0.1 mm 1 m/s 669 mmHg 67%
    10:00 +32°C° 0.1 mm 2 m/s 669 mmHg 64%
    11:00 +34°C° 0.1 mm 2 m/s 669 mmHg 61%
    12:00 +35°C° 0.3 mm 3 m/s 669 mmHg 61%
    13:00 +35°C° 0.3 mm 3 m/s 668 mmHg 61%
    14:00 +35°C° 0.3 mm 3 m/s 668 mmHg 61%
    15:00 +35°C° 0.8 mm 2 m/s 668 mmHg 61%
    16:00 +35°C° 0.8 mm 2 m/s 667 mmHg 61%
    17:00 +34°C° 0.8 mm 2 m/s 667 mmHg 62%
    18:00 +32°C° 0.5 mm 1 m/s 667 mmHg 66%
    19:00 +31°C° 0.5 mm 1 m/s 667 mmHg 70%
    20:00 +30°C° 0.5 mm 1 m/s 667 mmHg 74%
    21:00 +30°C° 0.7 mm 1 m/s 667 mmHg 76%
    22:00 +29°C° 0.7 mm 1 m/s 668 mmHg 77%
    23:00 +29°C° 0.7 mm 1 m/s 668 mmHg 78%
    Arată mai mult